NOAA 16 DEB, 42416

Orbit data source: Space-Track

NOAA 16 DEB, 42416 is space debris in SSO originally from a launch on Thu, 21 Sep 2000 UTC launched from the Air Force Western Test Range (AFWTR). Debris objects in space refer to the collection of defunct objects orbiting the Earth. Examples of debris include non-operational satellites, rocket bodies, and fragments generated from explosions, collisions, or faulty payload assembly.

Loading next visibility...
Identifier
42416, 2000-055TL
Orbit
SSO
Country
Flag of USUS
Related business
Manufacturer
Unknown
Mission
Spacecraft
Bus & Motor
Unknown
Mass
Unknown
Launch date (UTC)
2000-09-21 (25 years ago)
Launch vehicle
Unknown
Launch site
Air Force Western Test Range (AFWTR)
Object type
Payload
Rocket body
Debris
Shape & HBR
Unknown shape, 0.1 m
Radar Cross Section
Small (<0.1 m²)

Expand to show TLE details & history
Last TLE update: 2 days ago

TLE from 2 days ago
0 NOAA 16 DEB
1 42416U 00055TL  25291.81160555  .00037790  00000-0  91570-2 0  9997
2 42416  98.8529  60.7674 0013095 268.3132  91.6562 14.52751773494685
Epoch: 2025-10-18T19:28Z
TLE epoch observation values (Epoch: 2025-10-18T19:28:42.719Z)
Latitude
-0.00004°
Longitude
101.05215°
Altitude
719.91 km
Speed
7.495 km/s
True Right ascension
04h 03m 04s
True Declination
0° 00' 00"
Sunlit
Object was in full shadow at epoch
Visualization orbit readout
Latitude
Unknown
Longitude
Unknown
Altitude
Unknown
Speed
Unknown
Apparent Right ascension
Unknown
Apparent Declination
Unknown
Sunlit
N/A
Visualization observer readout
Local Sidereal Time
08:25:53
Azimuth
Unknown
Elevation
Unknown
Doppler factor
Unknown
Orbital elements
Apogee altitude
723.084 km
Perigee altitude
704.51 km
Semi-major axis
7,091.934 km
Eccentricity
0.00131
Inclination
98.8529°
RAAN
60.7674°
Arg. of periapsis
268.3132°
True anomaly
91.80619°
Mean anomaly
91.6562°
Eccentric anomaly
91.73119°
Mean motion
3.63409 °/min
Orbital period
99.06 mins
BSTAR
0.009157
Loading maneuver chart data...
Computing Atmospheric mass density...
Loading historical data...
Loading historical data...
Loading historical data...
Loading historical data...
Loading historical data...
Loading historical data...
Loading historical data...

Documentation

Showing up to 5 results
|